TimeEDT,TemperatureF,Dew PointF,Humidity,Sea Level PressureIn,VisibilityMPH,Wind Direction,Wind SpeedMPH,Gust SpeedMPH,PrecipitationIn,Events,Conditions,WindDirDegrees,DateUTC
12:15 AM,42.8,39.2,87,29.72,10.0,SSW,6.9,-,N/A,,Overcast,210,2013-03-12 04:15:00
12:35 AM,42.8,41.0,93,29.74,8.0,SSW,5.8,-,0.01,,Overcast,200,2013-03-12 04:35:00
12:55 AM,42.8,41.0,93,29.72,9.0,SSW,3.5,-,0.02,,Overcast,200,2013-03-12 04:55:00
1:15 AM,42.8,39.2,87,29.74,7.0,West,11.5,17.3,0.01,,Overcast,280,2013-03-12 05:15:00
1:35 AM,39.2,37.4,93,29.74,7.0,WNW,12.7,-,0.03,,Overcast,300,2013-03-12 05:35:00
1:55 AM,39.2,37.4,93,29.74,7.0,WNW,9.2,-,0.04,,Overcast,290,2013-03-12 05:55:00
2:15 AM,37.4,35.6,93,29.75,10.0,West,10.4,-,N/A,,Overcast,270,2013-03-12 06:15:00
2:35 AM,37.4,35.6,93,29.75,8.0,West,9.2,-,N/A,,Overcast,270,2013-03-12 06:35:00
2:55 AM,37.4,35.6,93,29.76,8.0,West,11.5,-,0.01,,Mostly Cloudy,260,2013-03-12 06:55:00
3:15 AM,37.4,33.8,87,29.76,7.0,West,6.9,-,0.01,,Overcast,260,2013-03-12 07:15:00
3:35 AM,37.4,35.6,93,29.75,7.0,WNW,9.2,-,0.01,,Overcast,300,2013-03-12 07:35:00
3:55 AM,33.8,30.2,87,29.77,8.0,WNW,12.7,-,0.01,,Overcast,290,2013-03-12 07:55:00
4:15 AM,33.8,30.2,87,29.77,8.0,West,12.7,-,0.01,,Overcast,280,2013-03-12 08:15:00
4:35 AM,33.8,28.4,81,29.77,5.0,West,8.1,-,0.01,,Overcast,280,2013-03-12 08:35:00
4:55 AM,33.8,28.4,81,29.77,10.0,West,6.9,-,0.01,,Overcast,270,2013-03-12 08:55:00
5:15 AM,33.8,28.4,81,29.78,5.0,West,9.2,-,N/A,,Overcast,260,2013-03-12 09:15:00
5:35 AM,32.0,30.2,93,29.78,5.0,West,6.9,-,N/A,,Overcast,260,2013-03-12 09:35:00
5:55 AM,32.0,30.2,93,29.79,10.0,West,5.8,-,N/A,,Overcast,260,2013-03-12 09:55:00
6:15 AM,32.0,28.4,87,29.79,10.0,West,6.9,-,N/A,,Overcast,260,2013-03-12 10:15:00
6:35 AM,33.8,28.4,81,29.80,10.0,West,5.8,-,N/A,,Overcast,260,2013-03-12 10:35:00
6:55 AM,33.8,28.4,81,29.80,10.0,West,6.9,-,N/A,,Overcast,260,2013-03-12 10:55:00
7:15 AM,33.8,28.4,81,29.80,10.0,WSW,5.8,-,N/A,,Overcast,250,2013-03-12 11:15:00
7:35 AM,33.8,28.4,81,29.81,10.0,West,5.8,-,N/A,,Overcast,270,2013-03-12 11:35:00
7:55 AM,32.0,28.4,87,29.81,10.0,WSW,5.8,-,N/A,,Overcast,250,2013-03-12 11:55:00
8:15 AM,32.0,28.4,87,29.81,7.0,WSW,6.9,-,N/A,,Overcast,240,2013-03-12 12:15:00
8:35 AM,32.0,28.4,87,29.82,2.0,SW,6.9,-,N/A,,Overcast,230,2013-03-12 12:35:00
8:55 AM,32.0,28.4,87,29.82,3.0,SW,6.9,-,N/A,,Overcast,220,2013-03-12 12:55:00
9:15 AM,32.0,30.2,93,29.81,5.0,South,4.6,-,N/A,,Overcast,180,2013-03-12 13:15:00
9:35 AM,33.8,30.2,87,29.81,5.0,SSW,5.8,-,N/A,,Overcast,200,2013-03-12 13:35:00
9:55 AM,33.8,30.2,87,29.82,8.0,SSW,5.8,-,N/A,,Overcast,210,2013-03-12 13:55:00
10:15 AM,33.8,30.2,87,29.82,10.0,SW,6.9,-,N/A,,Mostly Cloudy,220,2013-03-12 14:15:00
10:35 AM,35.6,30.2,81,29.82,10.0,WSW,10.4,-,N/A,,Mostly Cloudy,240,2013-03-12 14:35:00
10:55 AM,35.6,28.4,75,29.82,10.0,SW,11.5,16.1,N/A,,Overcast,230,2013-03-12 14:55:00
11:15 AM,35.6,28.4,75,29.83,10.0,WSW,12.7,-,N/A,,Overcast,240,2013-03-12 15:15:00
11:35 AM,33.8,28.4,81,29.83,10.0,WSW,12.7,-,N/A,,Overcast,250,2013-03-12 15:35:00
11:55 AM,33.8,28.4,81,29.83,10.0,WSW,11.5,17.3,N/A,,Overcast,240,2013-03-12 15:55:00
12:15 PM,33.8,28.4,81,29.82,10.0,WSW,11.5,-,N/A,,Overcast,240,2013-03-12 16:15:00
12:35 PM,33.8,28.4,81,29.83,10.0,West,10.4,-,N/A,,Overcast,260,2013-03-12 16:35:00
12:55 PM,33.8,28.4,81,29.83,10.0,WSW,8.1,-,N/A,,Overcast,250,2013-03-12 16:55:00
1:15 PM,33.8,28.4,81,29.82,10.0,WSW,11.5,-,N/A,,Overcast,240,2013-03-12 17:15:00
1:35 PM,33.8,28.4,81,29.83,10.0,WSW,12.7,-,N/A,,Overcast,250,2013-03-12 17:35:00
1:55 PM,33.8,28.4,81,29.82,10.0,West,6.9,-,N/A,,Overcast,280,2013-03-12 17:55:00
2:15 PM,32.0,28.4,87,29.83,9.0,WNW,6.9,-,N/A,,Overcast,290,2013-03-12 18:15:00
2:35 PM,32.0,28.4,87,29.82,10.0,WNW,11.5,-,N/A,,Overcast,300,2013-03-12 18:35:00
2:55 PM,32.0,28.4,87,29.83,4.0,West,9.2,-,N/A,,Overcast,280,2013-03-12 18:55:00
3:15 PM,32.0,28.4,87,29.83,10.0,West,10.4,-,N/A,,Overcast,270,2013-03-12 19:15:00
3:35 PM,32.0,28.4,87,29.83,8.0,West,8.1,-,N/A,,Overcast,270,2013-03-12 19:35:00
3:55 PM,32.0,28.4,87,29.83,8.0,West,9.2,-,N/A,,Overcast,280,2013-03-12 19:55:00
4:15 PM,30.2,26.6,86,29.83,8.0,WNW,9.2,-,N/A,,Overcast,290,2013-03-12 20:15:00
4:35 PM,30.2,26.6,86,29.85,10.0,WNW,9.2,-,N/A,,Overcast,290,2013-03-12 20:35:00
4:55 PM,30.2,26.6,86,29.85,5.0,West,8.1,-,N/A,,Overcast,280,2013-03-12 20:55:00
5:15 PM,30.2,26.6,86,29.85,8.0,West,8.1,-,N/A,,Overcast,260,2013-03-12 21:15:00
5:35 PM,30.2,26.6,86,29.85,7.0,West,6.9,-,N/A,,Overcast,280,2013-03-12 21:35:00
5:55 PM,30.2,28.4,93,29.85,5.0,West,6.9,-,N/A,,Overcast,270,2013-03-12 21:55:00
6:15 PM,30.2,26.6,86,29.86,5.0,WNW,10.4,-,N/A,,Overcast,290,2013-03-12 22:15:00
6:35 PM,30.2,26.6,86,29.86,3.0,West,9.2,-,N/A,,Overcast,270,2013-03-12 22:35:00
6:55 PM,30.2,26.6,86,29.86,3.0,West,9.2,-,N/A,,Overcast,270,2013-03-12 22:55:00
7:15 PM,30.2,26.6,86,29.87,3.0,West,8.1,-,N/A,,Overcast,280,2013-03-12 23:15:00
7:35 PM,30.2,26.6,86,29.87,4.0,West,6.9,-,N/A,,Overcast,270,2013-03-12 23:35:00
7:55 PM,30.2,26.6,86,29.88,5.0,West,5.8,-,N/A,,Overcast,270,2013-03-12 23:55:00
8:15 PM,30.2,26.6,86,29.89,4.0,West,11.5,-,N/A,,Overcast,270,2013-03-13 00:15:00
8:35 PM,30.2,26.6,86,29.89,6.0,West,8.1,-,N/A,,Overcast,270,2013-03-13 00:35:00
8:55 PM,30.2,26.6,86,29.89,5.0,West,10.4,-,N/A,,Overcast,270,2013-03-13 00:55:00
9:15 PM,28.4,26.6,93,29.89,4.0,West,11.5,16.1,N/A,,Overcast,260,2013-03-13 01:15:00
9:35 PM,28.4,26.6,93,29.89,6.0,West,8.1,17.3,N/A,,Overcast,270,2013-03-13 01:35:00
9:55 PM,28.4,24.8,86,29.89,9.0,West,10.4,16.1,N/A,,Overcast,270,2013-03-13 01:55:00
10:15 PM,28.4,24.8,86,29.90,8.0,West,12.7,-,N/A,,Overcast,260,2013-03-13 02:15:00
10:35 PM,28.4,24.8,86,29.90,10.0,WSW,11.5,-,N/A,,Overcast,250,2013-03-13 02:35:00
10:55 PM,28.4,24.8,86,29.90,10.0,WSW,12.7,18.4,N/A,,Overcast,250,2013-03-13 02:55:00
11:15 PM,28.4,24.8,86,29.90,10.0,West,13.8,-,N/A,,Overcast,260,2013-03-13 03:15:00
11:35 PM,28.4,24.8,86,29.90,9.0,West,13.8,20.7,N/A,,Overcast,260,2013-03-13 03:35:00
11:55 PM,28.4,24.8,86,29.90,8.0,West,9.2,-,N/A,,Overcast,260,2013-03-13 03:55:00